This is the latest recevied weather packets stored in our database for station/object K5YNC. If no packets are shown the sender has not sent any weather packets the latest 1 day(s).
| Time | Temp. | Humidity | Pressure | Rain* | Wind** | Luminosity | Snow |
|---|---|---|---|---|---|---|---|
| 1778012167 | 25° C | 67% | 1007.7 hPa | 0 mm | 0.45 m/s, 310° | 391 W/m² | - |
| 1778011865 | 25° C | 64% | 1007.9 hPa | 0 mm | 1.79 m/s, 333° | 385 W/m² | - |
| 1778011563 | 24.44° C | 65% | 1007.7 hPa | 0 mm | 2.24 m/s, 349° | 354 W/m² | - |
| 1778011259 | 25° C | 65% | 1007.7 hPa | 0 mm | 0.89 m/s, 164° | 291 W/m² | - |
| 1778010955 | 25° C | 64% | 1007.6 hPa | 0 mm | 2.24 m/s, 187° | 371 W/m² | - |
| 1778010653 | 25.56° C | 64% | 1007.7 hPa | 0 mm | 0.45 m/s, 201° | 262 W/m² | - |
| 1778010350 | 26.11° C | 62% | 1007.7 hPa | 0 mm | 1.79 m/s, 345° | 296 W/m² | - |
| 1778010046 | 25.56° C | 63% | 1007.3 hPa | 0 mm | 0.89 m/s, 356° | 513 W/m² | - |
| 1778009743 | 26.11° C | 62% | 1007.2 hPa | 0 mm | 0.45 m/s, 158° | 455 W/m² | - |
| 1778009440 | 26.67° C | 59% | 1007.3 hPa | 0 mm | 0.45 m/s, 224° | 711 W/m² | - |
| 1778009139 | 26.67° C | 57% | 1007.2 hPa | 0 mm | 1.34 m/s, 150° | 676 W/m² | - |
| 1778008836 | 26.67° C | 57% | 1007.1 hPa | 0 mm | 1.34 m/s, 330° | 582 W/m² | - |
| 1778008534 | 26.67° C | 58% | 1007.2 hPa | 0 mm | 1.79 m/s, 243° | 843 W/m² | - |
| 1778008232 | 26.67° C | 57% | 1007.1 hPa | 0 mm | 1.79 m/s, 208° | 435 W/m² | - |
| 1778007936 | 26.67° C | 55% | 1007.2 hPa | 0 mm | 0.89 m/s, 135° | 369 W/m² | - |
| 1778007628 | 26.11° C | 51% | 1007.1 hPa | 0 mm | 1.34 m/s, 242° | 315 W/m² | - |
| 1778007325 | 26.11° C | 50% | 1007.2 hPa | 0 mm | 1.34 m/s, 229° | 304 W/m² | - |
| 1778007021 | 26.11° C | 50% | 1007 hPa | 0 mm | 0.89 m/s, 243° | 293 W/m² | - |
| 1778006718 | 26.11° C | 49% | 1007 hPa | 0 mm | 0.89 m/s, 347° | 313 W/m² | - |
| 1778006415 | 26.11° C | 46% | 1006.8 hPa | 0 mm | 0.45 m/s, 155° | 282 W/m² | - |
| 1778006112 | 26.67° C | 49% | 1006.6 hPa | 0 mm | 0.45 m/s, 348° | 302 W/m² | - |
| 1778005809 | 26.11° C | 48% | 1006.8 hPa | 0 mm | 0.89 m/s, 329° | 322 W/m² | - |
| 1778005506 | 26.67° C | 47% | 1006.4 hPa | 0 mm | 1.34 m/s, 343° | 255 W/m² | - |
| 1778005202 | 27.22° C | 46% | 1006.3 hPa | 0 mm | 1.34 m/s, 192° | 286 W/m² | - |
| 1778004899 | 28.33° C | 52% | 1006.1 hPa | 0 mm | 0.45 m/s, 183° | 311 W/m² | - |
* Rain latest hour (hover to see other rain measurements)
** Current wind speed in m/s (hover to see current wind gust speed)